Wind_Speed
44 42 41 41 43 43 39 36 34 33 33 34 34 31 30 28 25 23 21 21 20 21 20 21 26 27 29 30 27 27 21 22 15 16 15 12 4 7
50 49 48 48 47 45 41 38 38 40 37 37 37 35 33 32 32 31 30 31 28 26 27 26 25 25 26 31 32 29 26 25 23 21 17 16 14 11
49 49 48 48 48 46 45 43 41 42 43 40 41 39 35 35 35 38 41 41 39 37 32 35 34 32 33 33 36 34 34 38 32 31 26 21 18 18
51 52 50 49 46 45 44 44 44 44 44 42 41 40 39 38 39 39 39 42 43 44 42 41 40 42 37 38 38 41 42 42 42 36 36 31 27 28
53 50 49 48 48 47 47 47 47 47 49 49 48 47 47 49 48 46 47 49 49 47 47 50 49 48 45 45 48 46 47 47 47 43 42 41 37 30
53 52 52 51 51 50 51 51 53 54 54 54 53 51 50 51 52 54 55 57 58 59 61 59 56 57 55 53 54 52 53 51 51 50 50 46 44 37
55 57 59 58 58 56 57 59 59 56 57 57 56 55 55 57 60 61 63 61 60 59 60 63 67 67 66 64 63 61 61 58 54 52 51 48 52 50
60 63 61 61 61 63 64 65 63 59 59 56 56 57 59 57 56 53 53 51 51 53 54 56 59 62 65 70 72 70 69 68 67 65 60 53 47 50
46 51 57 62 63 62 61 59 57 55 55 56 57 54 50 49 49 49 51 52 53 54 55 54 54 55 57 61 68 76 78 77 75 72 68 68 66 62
46 50 51 51 51 51 54 57 58 57 55 56 54 50 50 50 51 52 52 53 55 57 59 60 59 59 59 61 63 66 74 79 82 83 79 77 75 73
49 52 56 59 57 56 53 53 54 53 54 51 49 50 49 49 49 50 52 55 57 58 60 62 62 61 62 64 67 68 70 72 78 84 88 86 85 84
50 50 49 51 55 55 52 49 47 48 48 48 48 48 46 47 48 50 52 55 58 61 62 63 64 64 65 66 66 71 74 76 76 78 84 92 93 90
47 44 45 44 45 46 46 46 46 45 46 46 46 45 47 47 50 52 55 57 60 61 61 61 64 67 69 72 72 73 74 75 78 81 82 85 92 95
44 44 45 45 44 42 41 41 43 44 44 44 44 45 45 49 52 55 57 60 60 58 59 63 68 72 72 72 73 78 82 80 79 80 83 86 88 91
44 45 45 43 42 42 40 39 39 39 40 42 44 44 46 50 53 56 60 62 60 58 61 67 69 64 60 54 56 60 68 78 85 85 84 84 87 90
46 46 43 41 41 40 39 38 36 37 40 43 44 47 48 52 55 59 63 62 58 60 64 65 58 57 54 50 45 48 53 60 70 82 90 90 89 89
44 41 39 38 38 37 36 35 36 39 41 43 46 48 51 54 57 61 63 61 59 62 64 58 56 54 50 46 44 41 41 48 56 65 76 86 93 94
39 38 36 36 36 35 34 37 39 41 43 45 48 51 54 56 60 62 63 60 59 63 61 54 53 51 48 44 43 39 37 38 42 52 60 67 78 87
37 35 34 33 33 36 37 39 41 43 46 49 51 54 56 59 61 63 64 59 62 63 58 53 54 52 47 42 40 39 38 39 38 42 45 51 60 69
34 31 32 34 37 40 42 43 45 47 49 51 54 57 59 61 63 65 60 60 64 62 55 53 55 53 46 44 43 42 38 38 39 42 41 42 48 55
33 34 36 39 41 43 45 46 48 50 52 54 57 59 62 63 66 62 58 64 64 58 54 56 56 52 44 41 44 45 46 45 42 43 45 44 42 46
38 40 41 42 42 44 46 49 51 54 58 59 60 62 63 66 66 60 62 66 62 55 57 58 54 51 44 39 42 45 47 46 46 48 49 48 47 48
45 46 47 47 48 52 54 56 57 58 59 61 64 64 67 68 63 63 65 61 55 55 59 57 53 53 48 42 42 44 43 42 43 45 50 50 51 53
Wind_Direction
267 271 274 273 274 275 277 276 277 277 280 282 281 279 279 278 275 266 266 269 273 267 262 258 255 249 248 251 255 251 258 246 257 258 267 287 290 315
262 266 267 271 270 271 273 276 275 274 274 276 279 280 273 268 268 267 262 263 262 258 250 253 254 243 244 246 252 250 239 247 229 247 266 270 279 292
264 266 266 266 268 272 275 276 276 275 276 276 275 276 267 268 267 266 269 272 272 273 261 246 247 250 248 241 244 247 247 242 241 250 238 250 260 267
267 268 268 269 268 270 272 275 278 277 276 273 272 271 270 268 266 265 263 263 263 264 264 261 250 243 247 238 235 239 243 248 247 252 253 251 244 262
268 268 267 268 270 272 274 275 277 276 275 274 273 271 267 265 265 265 266 265 267 265 265 262 259 255 247 242 244 239 237 241 244 245 249 250 247 243
266 266 268 268 268 270 273 274 275 274 274 275 274 272 271 269 267 269 269 269 268 269 265 263 261 258 254 248 242 237 240 241 239 241 244 245 244 243
267 267 268 268 269 269 271 275 277 275 273 273 275 276 275 273 273 276 275 273 272 269 265 261 260 258 256 249 247 245 238 235 236 239 239 243 246 247
269 266 266 267 268 270 273 276 279 275 275 272 274 278 280 278 276 276 277 276 272 272 269 262 260 256 254 251 248 244 242 241 237 234 236 237 240 247
270 268 267 267 269 271 273 273 273 272 272 276 280 281 278 277 277 279 281 280 280 278 277 273 268 262 257 254 251 248 245 241 240 238 233 229 228 233
266 265 267 266 265 266 270 270 270 269 271 274 276 276 279 278 277 278 279 280 281 280 279 277 272 268 265 261 255 251 248 244 243 237 236 235 232 227
276 266 260 258 261 265 269 269 269 269 272 273 273 277 277 277 278 280 284 286 286 284 283 281 276 271 266 262 259 255 250 246 243 239 236 235 235 236
273 270 269 265 264 267 268 265 265 267 269 272 273 276 275 277 280 283 287 289 289 287 285 283 280 277 272 267 261 257 252 248 245 242 238 235 233 233
274 272 270 267 265 263 261 259 261 263 268 270 274 275 277 279 284 287 292 293 294 292 290 287 284 283 278 273 266 260 255 251 247 244 241 238 236 235
273 276 277 272 267 266 262 261 261 262 265 269 273 277 280 285 287 293 296 298 297 293 291 291 291 289 284 275 266 259 254 250 247 245 242 240 237 236
276 281 275 270 266 266 263 262 264 264 267 272 276 279 282 287 292 296 299 300 299 297 299 301 300 295 292 283 272 262 253 248 245 244 243 241 240 237
278 279 270 266 262 263 262 263 265 268 273 278 280 282 286 290 295 299 302 304 302 302 305 307 302 301 297 293 281 267 258 251 246 243 241 241 240 239
278 272 269 265 260 259 258 259 263 269 275 278 281 285 288 294 298 301 305 306 304 306 310 308 306 305 299 291 288 281 266 255 250 247 244 242 241 239
273 269 267 262 260 257 258 262 268 272 277 281 283 287 293 297 300 303 307 306 305 309 311 307 308 307 302 293 287 285 279 269 256 250 249 246 243 241
268 265 265 260 256 260 264 268 271 276 280 283 286 292 296 298 302 306 308 304 307 311 308 306 310 309 302 296 282 282 279 279 267 259 254 250 249 245
267 261 260 262 262 264 268 272 276 279 282 286 290 294 297 300 305 307 306 305 310 309 307 305 307 309 300 296 296 284 271 266 268 269 263 255 252 252
260 261 263 265 268 271 274 276 278 281 284 288 291 295 298 303 306 306 305 308 309 306 307 306 307 307 296 291 290 291 287 276 262 262 266 264 256 247
261 264 266 269 272 274 273 276 280 284 287 290 293 296 299 302 306 303 305 308 306 303 307 307 308 307 297 288 287 290 292 285 275 265 257 257 261 264
265 266 268 269 270 272 274 278 282 285 287 290 294 297 299 303 304 302 306 304 302 302 307 304 302 309 300 291 288 287 292 289 281 273 264 259 255 253
Height
10931 10930 10929 10928 10926 10925 10923 10922 10920 10920 10918 10917 10918 10919 10919 10918 10919 10920 10919 10921 10921 10922 10923 10924 10925 10927 10928 10928 10929 10930 10931 10932 10932 10933 10932 10932 10930 10930
10920 10919 10919 10918 10916 10914 10913 10912 10910 10908 10910 10908 10908 10909 10909 10909 10909 10909 10909 10910 10911 10913 10915 10917 10918 10919 10920 10920 10921 10923 10925 10924 10926 10927 10927 10927 10926 10925
10908 10908 10908 10907 10904 10902 10901 10902 10900 10897 10898 10900 10897 10896 10897 10897 10896 10897 10897 10897 10898 10899 10902 10905 10907 10909 10911 10911 10912 10915 10916 10916 10918 10918 10919 10920 10921 10921
10897 10897 10897 10895 10893 10891 10890 10889 10889 10886 10885 10885 10886 10885 10885 10884 10884 10883 10883 10884 10885 10886 10887 10890 10892 10895 10899 10900 10900 10902 10904 10905 10906 10907 10910 10912 10912 10915
10884 10883 10883 10882 10880 10879 10878 10877 10876 10875 10872 10872 10871 10871 10871 10870 10869 10869 10869 10868 10870 10872 10873 10874 10876 10879 10882 10885 10887 10888 10889 10891 10892 10895 10897 10900 10904 10904
10871 10870 10869 10867 10866 10864 10864 10863 10863 10862 10859 10856 10855 10855 10855 10854 10851 10852 10853 10852 10853 10853 10854 10855 10857 10860 10864 10866 10868 10873 10874 10876 10877 10880 10884 10887 10890 10892
10856 10855 10854 10852 10850 10849 10848 10847 10847 10846 10844 10842 10839 10838 10837 10836 10835 10832 10831 10832 10833 10832 10831 10832 10834 10837 10841 10845 10848 10850 10854 10859 10861 10864 10867 10872 10876 10878
10838 10837 10836 10835 10834 10832 10830 10829 10829 10828 10827 10826 10824 10821 10819 10817 10815 10814 10812 10811 10812 10811 10810 10812 10811 10814 10818 10821 10823 10828 10831 10834 10839 10846 10852 10855 10859 10861
10820 10818 10816 10815 10815 10814 10812 10811 10812 10812 10810 10808 10806 10804 10802 10800 10799 10797 10795 10794 10793 10791 10789 10790 10790 10791 10794 10796 10798 10801 10806 10812 10816 10821 10828 10834 10839 10844
10801 10800 10799 10797 10796 10796 10795 10794 10794 10794 10793 10792 10791 10789 10787 10785 10784 10782 10780 10778 10774 10773 10769 10767 10767 10768 10770 10771 10772 10774 10777 10784 10789 10796 10802 10810 10815 10819
10784 10782 10780 10779 10780 10780 10779 10777 10777 10777 10777 10776 10775 10774 10772 10770 10769 10767 10763 10759 10756 10753 10749 10744 10741 10743 10744 10744 10745 10747 10749 10754 10760 10767 10775 10782 10789 10796
10765 10763 10762 10761 10762 10763 10763 10762 10762 10762 10762 10761 10760 10758 10757 10755 10753 10750 10747 10743 10737 10731 10727 10722 10717 10715 10715 10714 10716 10717 10720 10725 10730 10737 10744 10752 10761 10768
10748 10746 10745 10745 10745 10746 10746 10747 10747 10748 10747 10746 10745 10743 10742 10740 10737 10733 10729 10724 10717 10710 10704 10698 10692 10688 10686 10683 10684 10685 10689 10693 10700 10706 10713 10720 10728 10738
10733 10731 10729 10727 10728 10729 10730 10731 10732 10733 10733 10732 10731 10730 10727 10724 10720 10715 10710 10704 10697 10690 10683 10676 10668 10659 10651 10646 10645 10647 10652 10660 10666 10673 10681 10689 10697 10706
10718 10717 10715 10713 10713 10713 10714 10716 10718 10719 10719 10719 10717 10716 10713 10710 10704 10698 10692 10684 10677 10669 10661 10651 10640 10628 10620 10615 10612 10613 10615 10623 10632 10642 10650 10658 10666 10675
10703 10703 10701 10701 10700 10700 10701 10702 10703 10704 10704 10703 10701 10700 10698 10694 10688 10681 10673 10665 10657 10649 10640 10628 10617 10608 10600 10593 10590 10589 10591 10595 10601 10608 10616 10625 10634 10642
10690 10689 10688 10688 10688 10688 10689 10690 10690 10691 10690 10689 10687 10684 10681 10677 10671 10664 10656 10647 10639 10631 10620 10607 10598 10591 10584 10578 10574 10572 10573 10574 10577 10580 10587 10594 10602 10612
10677 10676 10676 10676 10676 10677 10677 10678 10678 10678 10677 10675 10672 10669 10665 10660 10654 10647 10639 10631 10623 10614 10604 10594 10585 10576 10568 10562 10558 10559 10558 10557 10558 10559 10562 10567 10572 10579
10664 10664 10665 10665 10666 10666 10666 10665 10664 10663 10662 10659 10656 10652 10647 10642 10636 10629 10621 10613 10605 10596 10587 10578 10570 10561 10554 10550 10547 10545 10544 10541 10541 10541 10544 10546 10546 10550
10652 10652 10653 10654 10654 10654 10653 10652 10650 10649 10646 10643 10639 10634 10630 10624 10618 10611 10603 10596 10588 10579 10571 10564 10556 10548 10541 10536 10530 10529 10531 10529 10528 10525 10527 10528 10528 10528
10641 10642 10642 10643 10642 10641 10640 10638 10635 10633 10630 10626 10622 10618 10612 10607 10600 10593 10586 10579 10571 10563 10555 10549 10542 10536 10529 10524 10518 10512 10509 10511 10514 10512 10509 10510 10511 10512
10629 10629 10629 10628 10628 10627 10625 10622 10619 10615 10612 10609 10605 10601 10595 10590 10583 10576 10570 10562 10555 10548 10539 10531 10525 10519 10515 10511 10505 10499 10493 10493 10493 10494 10493 10493 10493 10492
10616 10615 10614 10613 10612 10610 10608 10605 10602 10599 10594 10590 10586 10582 10577 10571 10566 10559 10553 10545 10539 10532 10525 10515 10510 10505 10499 10496 10491 10485 10482 10478 10475 10473 10471 10475 10476 10476